Total_Precipitation_Accumulation
0.41 0.51 0.59 0.65 0.69 0.66 0.76 0.84 0.85 0.78 0.84 0.92 0.88 0.88 0.93 0.94 0.88 0.75 0.63 0.57 0.49 0.42 0.40 0.39 0.41 0.46 0.52 0.59 0.66 0.74 0.84 0.99 1.15 1.28 1.46 1.71 1.97 2.21
0.54 0.59 0.61 0.67 0.76 0.69 0.75 0.82 0.84 0.89 0.92 0.87 0.78 0.79 0.76 0.65 0.62 0.57 0.53 0.57 0.47 0.38 0.33 0.34 0.35 0.38 0.41 0.46 0.50 0.54 0.59 0.62 0.67 0.72 0.82 0.98 1.19 1.49
0.69 0.73 0.75 0.77 0.81 0.79 0.85 0.86 0.81 0.89 0.89 0.75 0.81 0.87 0.77 0.59 0.48 0.46 0.47 0.50 0.47 0.44 0.38 0.35 0.31 0.29 0.32 0.35 0.40 0.44 0.47 0.51 0.54 0.54 0.53 0.56 0.60 0.71
0.77 0.99 1.01 1.01 0.93 0.85 0.93 0.91 0.87 1.01 0.97 0.86 0.94 0.97 0.91 0.73 0.58 0.49 0.42 0.42 0.45 0.45 0.40 0.39 0.36 0.31 0.27 0.27 0.28 0.30 0.32 0.34 0.37 0.38 0.37 0.36 0.37 0.39
0.79 0.92 1.04 1.16 1.06 0.96 0.94 0.93 0.96 1.05 1.03 0.93 0.97 1.11 1.14 0.95 0.70 0.49 0.38 0.38 0.40 0.45 0.41 0.36 0.36 0.35 0.32 0.27 0.25 0.25 0.24 0.24 0.25 0.26 0.27 0.29 0.29 0.28
0.72 0.67 0.78 1.03 1.14 1.06 0.95 0.90 0.94 0.99 0.99 1.01 1.06 1.20 1.25 1.19 0.93 0.65 0.48 0.38 0.34 0.37 0.42 0.38 0.35 0.34 0.33 0.29 0.26 0.25 0.26 0.24 0.23 0.23 0.24 0.25 0.24 0.24
0.42 0.41 0.47 0.65 0.92 1.09 1.03 0.93 0.93 0.90 0.91 1.00 1.08 1.18 1.21 1.24 1.08 0.82 0.62 0.51 0.41 0.38 0.41 0.39 0.36 0.31 0.29 0.29 0.27 0.24 0.22 0.22 0.21 0.21 0.21 0.22 0.21 0.20
0.27 0.31 0.32 0.33 0.44 0.66 0.87 0.98 1.02 0.96 0.90 0.94 1.08 1.13 1.13 1.13 1.11 0.97 0.75 0.59 0.48 0.44 0.45 0.45 0.46 0.42 0.32 0.27 0.27 0.24 0.21 0.20 0.19 0.18 0.17 0.17 0.18 0.18
0.26 0.30 0.24 0.20 0.29 0.38 0.51 0.64 0.78 0.84 0.85 0.91 0.99 1.09 1.16 1.26 1.24 1.08 0.89 0.75 0.61 0.53 0.53 0.50 0.49 0.49 0.46 0.38 0.37 0.29 0.25 0.22 0.19 0.19 0.19 0.17 0.17 0.18
0.28 0.31 0.31 0.29 0.31 0.38 0.45 0.47 0.52 0.58 0.61 0.67 0.79 0.97 1.16 1.32 1.43 1.33 1.18 0.96 0.82 0.73 0.67 0.55 0.48 0.46 0.46 0.46 0.45 0.39 0.32 0.27 0.23 0.19 0.20 0.21 0.19 0.19
0.29 0.31 0.35 0.35 0.32 0.29 0.37 0.40 0.42 0.45 0.48 0.56 0.63 0.82 1.09 1.30 1.37 1.40 1.28 1.06 0.87 0.75 0.67 0.60 0.51 0.48 0.48 0.42 0.40 0.40 0.36 0.33 0.30 0.24 0.21 0.22 0.25 0.25
0.44 0.46 0.38 0.34 0.32 0.24 0.30 0.38 0.38 0.40 0.47 0.51 0.57 0.62 0.75 1.02 1.25 1.15 1.07 1.00 0.86 0.70 0.54 0.52 0.53 0.53 0.48 0.38 0.33 0.32 0.30 0.31 0.34 0.33 0.29 0.25 0.27 0.24
0.55 0.56 0.55 0.40 0.27 0.23 0.26 0.34 0.32 0.39 0.55 0.62 0.64 0.69 0.77 0.89 1.05 1.07 0.98 0.89 0.83 0.67 0.53 0.49 0.49 0.50 0.45 0.35 0.28 0.28 0.28 0.26 0.24 0.30 0.34 0.34 0.29 0.26
0.67 0.71 0.72 0.54 0.35 0.28 0.25 0.26 0.25 0.28 0.43 0.56 0.63 0.66 0.70 0.79 0.90 1.03 1.05 1.00 0.88 0.79 0.71 0.66 0.53 0.48 0.42 0.34 0.29 0.25 0.25 0.26 0.27 0.25 0.30 0.42 0.41 0.37
0.69 0.78 0.72 0.60 0.51 0.41 0.34 0.30 0.29 0.28 0.38 0.48 0.55 0.59 0.59 0.66 0.89 1.16 1.29 1.30 1.19 0.96 0.85 0.77 0.64 0.52 0.48 0.38 0.30 0.26 0.24 0.25 0.26 0.29 0.29 0.35 0.40 0.40
0.66 0.69 0.69 0.69 0.68 0.63 0.52 0.42 0.35 0.36 0.41 0.48 0.58 0.68 0.77 0.86 0.96 1.11 1.28 1.32 1.29 1.11 0.91 0.83 0.71 0.64 0.55 0.42 0.35 0.30 0.25 0.23 0.23 0.27 0.33 0.34 0.41 0.47
0.70 0.77 0.79 0.85 0.89 0.88 0.82 0.74 0.67 0.63 0.59 0.59 0.71 0.84 0.89 0.93 0.97 1.07 1.19 1.20 1.09 1.00 0.88 0.79 0.80 0.74 0.66 0.56 0.44 0.35 0.30 0.25 0.24 0.28 0.36 0.39 0.39 0.43
0.55 0.72 0.84 0.94 1.02 1.04 1.05 0.98 0.90 0.83 0.76 0.78 0.84 0.92 0.96 0.96 0.98 1.08 1.17 1.16 1.03 0.93 0.89 0.75 0.71 0.77 0.72 0.61 0.48 0.38 0.32 0.28 0.27 0.32 0.37 0.38 0.39 0.39
0.42 0.57 0.73 0.86 0.99 1.06 1.08 1.02 0.96 0.91 0.89 0.91 0.96 0.98 1.02 1.02 1.02 1.04 1.12 1.15 1.06 0.97 0.94 0.90 0.76 0.67 0.62 0.48 0.39 0.35 0.33 0.31 0.34 0.37 0.38 0.35 0.33 0.36
0.36 0.48 0.61 0.76 0.90 1.04 1.10 1.07 1.04 1.02 0.96 0.93 1.00 1.02 1.04 1.07 1.04 1.00 1.04 1.09 1.07 1.02 0.97 0.90 0.80 0.62 0.49 0.44 0.38 0.36 0.34 0.37 0.38 0.39 0.40 0.42 0.41 0.44
0.43 0.47 0.54 0.65 0.83 1.00 1.09 1.14 1.15 1.09 0.98 0.97 0.99 1.03 1.02 1.06 1.03 0.97 1.00 1.10 1.10 1.03 0.88 0.72 0.64 0.69 0.69 0.68 0.55 0.38 0.35 0.37 0.42 0.44 0.48 0.50 0.47 0.47
0.52 0.53 0.56 0.65 0.81 0.99 1.09 1.13 1.18 1.12 1.05 1.02 1.00 1.03 1.04 1.04 1.02 0.97 0.96 1.00 0.96 0.91 0.82 0.79 0.87 0.95 0.91 0.74 0.53 0.44 0.43 0.45 0.47 0.51 0.49 0.46 0.43 0.41
0.65 0.61 0.61 0.67 0.79 0.93 1.02 1.06 1.12 1.10 1.05 1.03 1.01 1.02 1.05 1.04 1.07 1.05 0.97 0.95 0.94 0.96 1.04 1.02 1.01 0.98 0.90 0.79 0.65 0.57 0.52 0.50 0.50 0.49 0.43 0.40 0.35 0.36